When you browse on this site, cookies collect data to enhance your experience and personalize the content and advertising you see.
Visit our Privacy Policy to learn more. By continuing to use the site, you agree to this use of cookies and data.

Hourly Weather Satif

Today, 11 July, Saturday

Time Temperature Precipitation Wind Pressure Humidity
00:00 +27°C° 0 mm 3 mps 673 mmHg 32%
01:00 +26°C° 0 mm 3 mps 673 mmHg 33%
02:00 +26°C° 0 mm 2 mps 672 mmHg 33%
03:00 +25°C° 0 mm 2 mps 672 mmHg 34%
04:00 +26°C° 0 mm 2 mps 672 mmHg 34%
05:00 +26°C° 0 mm 3 mps 673 mmHg 34%
06:00 +27°C° 0 mm 4 mps 674 mmHg 34%
07:00 +29°C° 0 mm 5 mps 674 mmHg 30%
08:00 +32°C° 0 mm 6 mps 675 mmHg 27%
09:00 +33°C° 0 mm 7 mps 675 mmHg 23%
10:00 +34°C° 0 mm 7 mps 675 mmHg 21%
11:00 +35°C° 0 mm 7 mps 676 mmHg 19%
12:00 +36°C° 0 mm 7 mps 676 mmHg 18%
13:00 +38°C° 0 mm 7 mps 675 mmHg 17%
14:00 +38°C° 0 mm 7 mps 675 mmHg 16%
15:00 +39°C° 0 mm 6 mps 675 mmHg 15%
16:00 +36°C° 0 mm 5 mps 675 mmHg 19%
17:00 +34°C° 0 mm 4 mps 674 mmHg 24%
18:00 +32°C° 0 mm 4 mps 674 mmHg 29%
19:00 +30°C° 0 mm 3 mps 674 mmHg 33%
20:00 +29°C° 0 mm 2 mps 674 mmHg 37%
21:00 +27°C° 0 mm 1 mps 674 mmHg 41%
22:00 +26°C° 0 mm 1 mps 674 mmHg 43%
23:00 +26°C° 0 mm 1 mps 674 mmHg 45%

Tomorrow, 12 July, Sunday

Time Temperature Precipitation Wind Pressure Humidity
00:00 +25°C° 0 mm 1 mps 674 mmHg 47%
01:00 +24°C° 0 mm 1 mps 673 mmHg 49%
02:00 +24°C° 0 mm 1 mps 673 mmHg 50%
03:00 +23°C° 0 mm 1 mps 673 mmHg 52%
04:00 +24°C° 0 mm 1 mps 673 mmHg 51%
05:00 +24°C° 0 mm 1 mps 673 mmHg 50%
06:00 +24°C° 0 mm 1 mps 674 mmHg 50%
07:00 +26°C° 0 mm 1 mps 674 mmHg 45%
08:00 +27°C° 0 mm 1 mps 675 mmHg 39%
09:00 +29°C° 0 mm 1 mps 676 mmHg 34%
10:00 +30°C° 0 mm 2 mps 676 mmHg 31%
11:00 +33°C° 0 mm 3 mps 676 mmHg 28%
12:00 +34°C° 0 mm 4 mps 676 mmHg 24%
13:00 +34°C° 0 mm 4 mps 676 mmHg 24%
14:00 +34°C° 0 mm 4 mps 676 mmHg 23%
15:00 +34°C° 0 mm 5 mps 676 mmHg 23%
16:00 +33°C° 0 mm 5 mps 675 mmHg 26%
17:00 +32°C° 0 mm 4 mps 675 mmHg 30%
18:00 +30°C° 0 mm 4 mps 675 mmHg 34%
19:00 +28°C° 0 mm 4 mps 675 mmHg 38%
20:00 +27°C° 0 mm 3 mps 675 mmHg 43%
21:00 +26°C° 0 mm 2 mps 675 mmHg 47%
22:00 +25°C° 0 mm 2 mps 675 mmHg 49%
23:00 +24°C° 0 mm 2 mps 675 mmHg 50%

Day after tomorrow, 13 July, Monday

Time Temperature Precipitation Wind Pressure Humidity
00:00 +24°C° 0 mm 1 mps 674 mmHg 52%
01:00 +23°C° 0 mm 1 mps 674 mmHg 51%
02:00 +23°C° 0 mm 1 mps 673 mmHg 51%
03:00 +23°C° 0 mm 2 mps 673 mmHg 51%
04:00 +23°C° 0 mm 1 mps 673 mmHg 49%
05:00 +24°C° 0 mm 1 mps 674 mmHg 48%
06:00 +24°C° 0 mm 1 mps 674 mmHg 46%
07:00 +26°C° 0 mm 1 mps 675 mmHg 39%
08:00 +28°C° 0 mm 1 mps 675 mmHg 33%
09:00 +30°C° 0 mm 1 mps 676 mmHg 27%
10:00 +31°C° 0 mm 2 mps 676 mmHg 24%
11:00 +34°C° 0 mm 3 mps 676 mmHg 22%
12:00 +35°C° 0 mm 3 mps 676 mmHg 19%
13:00 +35°C° 0 mm 4 mps 675 mmHg 20%
14:00 +34°C° 0 mm 5 mps 675 mmHg 20%
15:00 +34°C° 0 mm 5 mps 675 mmHg 21%
16:00 +33°C° 0.1 mm 4 mps 674 mmHg 23%
17:00 +31°C° 0.1 mm 3 mps 674 mmHg 25%
18:00 +30°C° 0.1 mm 1 mps 674 mmHg 27%
19:00 +29°C° 0 mm 1 mps 674 mmHg 30%
20:00 +28°C° 0 mm 1 mps 674 mmHg 34%
21:00 +26°C° 0 mm 1 mps 674 mmHg 38%
22:00 +26°C° 0 mm 1 mps 673 mmHg 40%
23:00 +25°C° 0 mm 1 mps 673 mmHg 42%

14 July, Tuesday

Time Temperature Precipitation Wind Pressure Humidity
00:00 +25°C° 0 mm 1 mps 673 mmHg 44%
01:00 +24°C° 0 mm 1 mps 672 mmHg 46%
02:00 +23°C° 0 mm 1 mps 672 mmHg 49%
03:00 +21°C° 0 mm 0 mps 672 mmHg 51%
04:00 +23°C° 0 mm 1 mps 672 mmHg 49%
05:00 +24°C° 0 mm 1 mps 672 mmHg 47%
06:00 +25°C° 0 mm 1 mps 673 mmHg 44%
07:00 +26°C° 0 mm 1 mps 673 mmHg 40%
08:00 +27°C° 0 mm 1 mps 673 mmHg 36%
09:00 +29°C° 0 mm 1 mps 674 mmHg 31%
10:00 +30°C° 0 mm 2 mps 674 mmHg 30%
11:00 +31°C° 0 mm 2 mps 674 mmHg 28%
12:00 +32°C° 0 mm 2 mps 674 mmHg 27%
13:00 +31°C° 0 mm 3 mps 674 mmHg 31%
14:00 +30°C° 0 mm 4 mps 673 mmHg 34%
15:00 +30°C° 0 mm 4 mps 673 mmHg 38%
16:00 +29°C° 0 mm 4 mps 673 mmHg 41%
17:00 +28°C° 0 mm 4 mps 673 mmHg 44%
18:00 +27°C° 0 mm 4 mps 673 mmHg 47%
19:00 +26°C° 0 mm 4 mps 673 mmHg 51%
20:00 +25°C° 0 mm 4 mps 673 mmHg 55%
21:00 +24°C° 0 mm 3 mps 673 mmHg 59%
22:00 +23°C° 0 mm 2 mps 673 mmHg 60%
23:00 +23°C° 0 mm 2 mps 673 mmHg 61%

15 July, Wednesday

Time Temperature Precipitation Wind Pressure Humidity
00:00 +22°C° 0 mm 1 mps 673 mmHg 62%
01:00 +22°C° 0 mm 1 mps 673 mmHg 63%
02:00 +21°C° 0 mm 1 mps 672 mmHg 64%
03:00 +21°C° 0 mm 1 mps 672 mmHg 65%
04:00 +22°C° 0 mm 1 mps 673 mmHg 62%
05:00 +22°C° 0 mm 1 mps 673 mmHg 59%
06:00 +22°C° 0 mm 1 mps 674 mmHg 56%
07:00 +24°C° 0 mm 1 mps 674 mmHg 51%
08:00 +26°C° 0 mm 2 mps 674 mmHg 45%
09:00 +27°C° 0 mm 2 mps 675 mmHg 40%
10:00 +29°C° 0 mm 2 mps 675 mmHg 36%
11:00 +30°C° 0 mm 2 mps 675 mmHg 32%
12:00 +31°C° 0 mm 2 mps 676 mmHg 29%
13:00 +32°C° 0 mm 2 mps 675 mmHg 29%
14:00 +33°C° 0 mm 3 mps 675 mmHg 30%
15:00 +33°C° 0 mm 4 mps 675 mmHg 30%
16:00 +32°C° 0 mm 4 mps 675 mmHg 35%
17:00 +30°C° 0 mm 4 mps 674 mmHg 39%
18:00 +28°C° 0 mm 4 mps 674 mmHg 44%
19:00 +27°C° 0 mm 4 mps 674 mmHg 47%
20:00 +26°C° 0 mm 3 mps 675 mmHg 51%
21:00 +24°C° 0 mm 3 mps 675 mmHg 54%
22:00 +24°C° 0 mm 2 mps 675 mmHg 55%
23:00 +23°C° 0 mm 2 mps 675 mmHg 57%

16 July, Thursday

Time Temperature Precipitation Wind Pressure Humidity
00:00 +23°C° 0 mm 1 mps 674 mmHg 58%
01:00 +22°C° 0 mm 1 mps 674 mmHg 59%
02:00 +22°C° 0 mm 1 mps 674 mmHg 61%
03:00 +21°C° 0 mm 1 mps 674 mmHg 62%
04:00 +22°C° 0 mm 1 mps 674 mmHg 60%
05:00 +22°C° 0 mm 1 mps 674 mmHg 58%
06:00 +22°C° 0 mm 1 mps 675 mmHg 56%
07:00 +24°C° 0 mm 1 mps 675 mmHg 50%
08:00 +26°C° 0 mm 1 mps 676 mmHg 45%
09:00 +27°C° 0 mm 1 mps 676 mmHg 39%
10:00 +29°C° 0 mm 2 mps 676 mmHg 35%
11:00 +31°C° 0 mm 3 mps 676 mmHg 31%
12:00 +33°C° 0 mm 4 mps 677 mmHg 26%
13:00 +33°C° 0 mm 4 mps 676 mmHg 27%
14:00 +33°C° 0 mm 5 mps 676 mmHg 27%
15:00 +33°C° 0 mm 5 mps 676 mmHg 27%
16:00 +32°C° 0 mm 5 mps 675 mmHg 30%
17:00 +30°C° 0 mm 4 mps 675 mmHg 32%
18:00 +29°C° 0 mm 4 mps 674 mmHg 35%
19:00 +28°C° 0 mm 3 mps 674 mmHg 40%
20:00 +26°C° 0 mm 3 mps 674 mmHg 46%
21:00 +24°C° 0 mm 2 mps 674 mmHg 51%
22:00 +24°C° 0 mm 2 mps 674 mmHg 53%
23:00 +23°C° 0 mm 2 mps 674 mmHg 55%
Show more